Weather WX

World > North America > United States > Minnesota

Sawyer, Minnesota Regional Weather

Lat: 46.67N, Lon: 92.63W
Wx Zone: MNZ037
Warning FLW WEATHER ALERT - (More Info. Click Here) Warning
Feedback

Sawyer, MN Regional Weather

Expires:201906180200;;655114
ASUS43 KMPX 180110
RWRMN 
WEATHER ROUNDUP FOR MINNESOTA
NATIONAL WEATHER SERVICE TWIN CITIES/CHANHASSEN MN
800 PM CDT MON JUN 17 2019


NOTE: "FAIR" INDICATES FEW OR NO CLOUDS BELOW 12,000 FEET WITH NO
SIGNIFICANT WEATHER AND/OR OBSTRUCTIONS TO VISIBILITY. N/A MEANS
CURRENT SKY AND/OR WEATHER CONDITIONS ARE NOT AVAILABLE.


MNZ037-044-045-052-053-180200-
   East Central Minnesota   
  
CITY           SKY/WX    TMP DP  RH WIND       PRES   REMARKS
PRINCETON      FAIR      68  54  60 W3        29.98S                  
MORA           MOCLDY    64  52  63 NW9       29.99S                  
CAMBRIDGE      FAIR      72  54  53 NW6       29.97S                  
RUSH CITY      FAIR      67  52  59 W5        29.96S                  
MOOSE LAKE     FAIR      63  50  63 NW3       29.96R                  
HINCKLEY       MOCLDY    66  52  59 NW3       29.97S                  
CLOQUET        FAIR      61  48  63 SW3       29.97R                  
MCGREGOR       CLOUDY    63  50  63 W6        29.99R                  
$$

SKY/WX - Weather  TMP - Temperature  DP - Dew Point  RH - Relative Humidity
WIND - Wind Direction/Speed PRES - Barometric Pressure VSB - Visibility
WCI - Wind Chill Index E13G22 Wind - East Wind 13 mph/Gusts of 22 mph